[Date Prev][Date Next][Thread Prev][Thread Next] - [Date Index][Thread Index][Author Index]

2 Line ISS Keps 10-18



ISS
1 25544U 98067A   05291.14037758  .00014655  00000-0  10394-3 0  5708
2 25544 051.6452 350.9768 0001722 098.6049 303.2229 15.74206300395030
----
Via the sarex mailing list at AMSAT.ORG courtesy of AMSAT-NA.
To unsubscribe, send "unsubscribe sarex" to Majordomo@amsat.org



AMSAT Top AMSAT Home